Weather History for Crane Lake, MN

Change the Weather History Date:

Sunday, March 30, 2014

  Actual Average Record
Temperature  
Mean Temperature 44 °F -  
Max Temperature 59 °F 38 °F 59 °F (2014)
Min Temperature 30 °F 20 °F 8 °F (2009)
Degree Days  
Heating Degree Days 20    
Moisture  
Dew Point 27 °F    
Average Humidity 59    
Maximum Humidity 75    
Minimum Humidity 36    
Precipitation  
Precipitation 0.00 in - - ()
Sea Level Pressure  
Sea Level Pressure 29.87 in    
Wind  
Wind Speed 5 mph (South)    
Max Wind Speed 12 mph    
Max Gust Speed 17 mph    
Visibility 10 miles    
Events      
Averages and records for this station are not official NWS values.
T = Trace of Precipitation, MM = Missing Value Source: NWS Daily Summary

Daily Weather History Graph

Daily Weather History Graph

Search for Another Location

Airport:

Trip Planner

Search our weather history database for the weather conditions in past years. The results will help you decide how hot, cold, wet, or windy it might be!

Date:

Astronomy

Mar. 30, 2014 Rise Set
Actual Time 6:52 AM CDT 7:37 PM CDT
Civil Twilight 6:20 AM CDT 8:09 PM CDT
Nautical Twilight 5:43 AM CDT 8:46 PM CDT
Astronomical Twilight 5:03 AM CDT 9:26 PM CDT
Moon 6:38 AM CDT (3/30) 7:53 PM CDT (3/30)
Length of Visible Light 13h 48m
Length of Day
12h 45m
Waning Crescent, 0% of the Moon is Illuminated
Mar 30
Waning Crescent
Mar 30
New
Apr 7
First Quarter
Apr 15
Full
Apr 22
Last Quarter

Hourly Weather History & Observations

Time (CDT) Temp. Windchill Dew Point Humidity Pressure Visibility Wind Dir Wind Speed Gust Speed Precip Events Conditions
12:08 AM 30.2 °F 25.4 °F 14.0 °F 51% 30.00 in 10.0 mi South 4.6 mph - N/A   Overcast
12:28 AM 30.2 °F 25.4 °F 15.8 °F 55% 30.00 in 10.0 mi South 4.6 mph - N/A   Overcast
12:48 AM 30.2 °F 22.6 °F 15.8 °F 55% 29.98 in 10.0 mi SSE 8.1 mph - N/A   Mostly Cloudy
1:08 AM 30.2 °F 23.4 °F 17.6 °F 60% 29.96 in 10.0 mi SSE 6.9 mph - N/A   Mostly Cloudy
1:28 AM 30.2 °F 23.4 °F 17.6 °F 60% 29.94 in 10.0 mi SSE 6.9 mph - N/A   Overcast
1:48 AM 30.2 °F 23.4 °F 19.4 °F 64% 29.93 in 10.0 mi SSE 6.9 mph - N/A   Mostly Cloudy
2:08 AM 32.0 °F 24.8 °F 19.4 °F 60% 29.91 in 10.0 mi South 8.1 mph - N/A   Mostly Cloudy
2:28 AM 32.0 °F 25.6 °F 19.4 °F 60% 29.90 in 10.0 mi South 6.9 mph 16.1 mph N/A   Overcast
2:48 AM 32.0 °F 25.6 °F 21.2 °F 64% 29.89 in 10.0 mi South 6.9 mph - N/A   Overcast
3:08 AM 33.8 °F 29.6 °F 21.2 °F 60% 29.88 in 10.0 mi South 4.6 mph - N/A   Overcast
3:28 AM 33.8 °F 27.0 °F 23.0 °F 65% 29.86 in 10.0 mi South 8.1 mph - N/A   Overcast
3:48 AM 33.8 °F 29.6 °F 23.0 °F 65% 29.85 in 10.0 mi SSE 4.6 mph - N/A   Mostly Cloudy
4:08 AM 32.0 °F 26.4 °F 24.8 °F 75% 29.84 in 10.0 mi South 5.8 mph - N/A   Scattered Clouds
4:28 AM 32.0 °F 24.8 °F 24.8 °F 75% 29.83 in 10.0 mi SSE 8.1 mph - N/A   Clear
4:48 AM 32.0 °F 27.5 °F 24.8 °F 75% 29.83 in 10.0 mi South 4.6 mph - N/A   Clear
5:08 AM 32.0 °F 26.4 °F 24.8 °F 75% 29.83 in 10.0 mi SSE 5.8 mph - N/A   Scattered Clouds
5:28 AM 32.0 °F 24.8 °F 24.8 °F 75% 29.82 in 10.0 mi SSE 8.1 mph - N/A   Scattered Clouds
5:48 AM 33.8 °F 29.6 °F 24.8 °F 70% 29.83 in 10.0 mi South 4.6 mph - N/A   Scattered Clouds
6:08 AM 33.8 °F 29.6 °F 24.8 °F 70% 29.83 in 10.0 mi South 4.6 mph - N/A   Mostly Cloudy
6:28 AM 33.8 °F 29.6 °F 24.8 °F 70% 29.82 in 10.0 mi SSE 4.6 mph - N/A   Mostly Cloudy
6:48 AM 33.8 °F 27.7 °F 24.8 °F 70% 29.83 in 10.0 mi South 6.9 mph - N/A   Mostly Cloudy
7:08 AM 33.8 °F 27.0 °F 26.6 °F 75% 29.83 in 10.0 mi South 8.1 mph - N/A   Clear
7:28 AM 33.8 °F 28.6 °F 26.6 °F 75% 29.83 in 10.0 mi South 5.8 mph - N/A   Clear
7:48 AM 33.8 °F 27.7 °F 26.6 °F 75% 29.81 in 10.0 mi SSE 6.9 mph - N/A   Clear
8:08 AM 33.8 °F 27.0 °F 26.6 °F 75% 29.82 in 10.0 mi South 8.1 mph - N/A   Scattered Clouds
8:28 AM 35.6 °F 29.2 °F 28.4 °F 75% 29.83 in 10.0 mi South 8.1 mph - N/A   Clear
8:48 AM 37.4 °F 30.8 °F 28.4 °F 70% 29.81 in 10.0 mi South 9.2 mph 17.3 mph N/A   Scattered Clouds
9:08 AM 37.4 °F 29.8 °F 28.4 °F 70% 29.82 in 10.0 mi South 11.5 mph - N/A   Clear
9:28 AM 39.2 °F 34.2 °F 28.4 °F 65% 29.83 in 10.0 mi South 6.9 mph - N/A   Scattered Clouds
9:48 AM 39.2 °F 32.5 °F 28.4 °F 65% 29.84 in 10.0 mi SSW 10.4 mph 16.1 mph N/A   Scattered Clouds
10:07 AM 42.8 °F 40.1 °F 28.4 °F 57% 29.84 in 10.0 mi SSW 4.6 mph - N/A   Scattered Clouds
10:28 AM 42.8 °F 38.6 °F 30.2 °F 61% 29.84 in 10.0 mi SSW 6.9 mph - N/A   Scattered Clouds
10:48 AM 44.6 °F 41.4 °F 30.2 °F 57% 29.85 in 10.0 mi South 5.8 mph - N/A   Scattered Clouds
11:08 AM 46.4 °F 42.9 °F 30.2 °F 53% 29.85 in 10.0 mi WSW 6.9 mph - N/A   Clear
11:28 AM 48.2 °F - 30.2 °F 50% 29.85 in 10.0 mi South 5.8 mph - N/A   Clear
11:48 AM 48.2 °F - 30.2 °F 50% 29.85 in 10.0 mi SSW 4.6 mph - N/A   Clear
12:08 PM 50.0 °F - 30.2 °F 47% 29.85 in 10.0 mi Calm Calm - N/A   Clear
12:28 PM 51.8 °F - 30.2 °F 44% 29.84 in 10.0 mi Calm Calm - N/A   Clear
12:48 PM 53.6 °F - 35.6 °F 51% 29.84 in 10.0 mi Calm Calm - N/A   Clear
1:08 PM 55.4 °F - 35.6 °F 47% 29.84 in 10.0 mi Calm Calm - N/A   Clear
1:28 PM 55.4 °F - 32.0 °F 41% 29.85 in 10.0 mi Calm Calm - N/A   Clear
1:48 PM 55.4 °F - 30.2 °F 38% 29.85 in 10.0 mi SSW 4.6 mph - N/A   Clear
2:08 PM 55.4 °F - 32.0 °F 41% 29.84 in 10.0 mi Calm Calm - N/A   Clear
2:28 PM 57.2 °F - 33.8 °F 41% 29.84 in 10.0 mi Calm Calm - N/A   Clear
2:48 PM 59.0 °F - 33.8 °F 39% 29.84 in 10.0 mi NNE 4.6 mph - N/A   Clear
3:08 PM 57.2 °F - 32.0 °F 38% 29.84 in 10.0 mi NNE 3.5 mph - N/A   Clear
3:28 PM 57.2 °F - 32.0 °F 38% 29.84 in 10.0 mi North 3.5 mph - N/A   Clear
3:48 PM 57.2 °F - 30.2 °F 36% 29.84 in 10.0 mi North 4.6 mph - N/A   Clear
4:08 PM 55.4 °F - 28.4 °F 36% 29.84 in 10.0 mi North 5.8 mph - N/A   Clear
4:28 PM 53.6 °F - 30.2 °F 41% 29.85 in 10.0 mi North 3.5 mph - N/A   Clear
4:48 PM 53.6 °F - 30.2 °F 41% 29.85 in 10.0 mi North 4.6 mph - N/A   Clear
5:08 PM 53.6 °F - 30.2 °F 41% 29.85 in 10.0 mi North 4.6 mph - N/A   Clear
5:28 PM 51.8 °F - 30.2 °F 44% 29.86 in 10.0 mi North 5.8 mph - N/A   Clear
5:48 PM 51.8 °F - 28.4 °F 41% 29.86 in 10.0 mi Calm Calm - N/A   Clear
6:08 PM 48.2 °F - 28.4 °F 46% 29.87 in 10.0 mi Calm Calm - N/A   Clear
6:28 PM 46.4 °F - 26.6 °F 46% 29.87 in 10.0 mi Calm Calm - N/A   Clear
6:48 PM 44.6 °F - 24.8 °F 46% 29.89 in 10.0 mi Calm Calm - N/A   Clear
7:08 PM 41.0 °F - 24.8 °F 53% 29.90 in 10.0 mi Calm Calm - N/A   Clear
7:28 PM 39.2 °F - 24.8 °F 56% 29.90 in 10.0 mi Calm Calm - N/A   Clear
7:48 PM 35.6 °F - 24.8 °F 65% 29.91 in 10.0 mi Calm Calm - N/A   Clear
8:08 PM 35.6 °F - 23.0 °F 60% 29.92 in 10.0 mi Calm Calm - N/A   Clear
8:28 PM 33.8 °F - 21.2 °F 60% 29.92 in 10.0 mi Calm Calm - N/A   Clear
8:48 PM 33.8 °F - 21.2 °F 60% 29.94 in 10.0 mi Calm Calm - N/A   Clear
9:08 PM 33.8 °F 30.8 °F 26.6 °F 75% 29.94 in 10.0 mi NNW 3.5 mph - N/A   Clear
9:28 PM 35.6 °F - 26.6 °F 70% 29.95 in 10.0 mi Calm Calm - N/A   Clear
9:48 PM 37.4 °F 34.9 °F 28.4 °F 70% 29.95 in 10.0 mi North 3.5 mph - N/A   Scattered Clouds
10:08 PM 37.4 °F 33.8 °F 28.4 °F 70% 29.95 in 10.0 mi North 4.6 mph - N/A   Scattered Clouds
10:28 PM 39.2 °F 37.0 °F 30.2 °F 70% 29.95 in 10.0 mi North 3.5 mph - N/A   Scattered Clouds
10:48 PM 39.2 °F 35.0 °F 30.2 °F 70% 29.95 in 10.0 mi North 5.8 mph - N/A   Scattered Clouds
11:08 PM 37.4 °F 33.8 °F 30.2 °F 75% 29.95 in 10.0 mi North 4.6 mph - N/A   Scattered Clouds
11:28 PM 37.4 °F 34.9 °F 30.2 °F 75% 29.95 in 10.0 mi North 3.5 mph - N/A   Scattered Clouds
11:48 PM 37.4 °F 33.8 °F 30.2 °F 75% 29.95 in 10.0 mi NNE 4.6 mph - N/A   Mostly Cloudy